Location: North Norton
(34.1056°N, 117.2528°W)
Time: 05:46:14
(UTC+00:00)

Daily predictions for brighter satellites

Satellite Brightness Start Highest point End
(mag) Time Altitude Azimuth Time Altitude Azimuth Time Altitude Azimuth
Meteor 2-19 Rocket 4.5 02:42:51 10° N 02:48:58 69° E 02:55:01 10° SSE
Cosmos 494 Rocket 4.0 02:46:26 10° NNW 02:51:40 78° ENE 02:56:53 10° SSE
Cosmos 2112 Rocket 4.0 02:49:07 10° NNW 02:54:19 86° ENE 02:59:28 10° SSE
SPOT 5 3.7 02:50:52 10° SE 02:54:42 27° ENE 02:58:24 10° NNE
SAR-Lupe-4 4.3 02:52:17 10° S 02:55:45 56° WSW 02:59:14 10° NNW
NOAA 6 4.2 02:52:50 10° S 02:57:54 81° WSW 03:03:01 10° NNW
SL-8 Rocket 4.0 02:58:13 10° S 03:04:24 69° E 03:10:40 10° NNE
Terra 3.6 03:06:02 10° E 03:08:24 14° ENE 03:10:51 10° NE
Cosmos 1943 Rocket 2.2 03:03:32 10° NNW 03:09:11 71° ENE 03:14:46 10° SSE
Timation 2 Rocket 4.4 03:04:44 10° NNW 03:11:00 51° ENE 03:17:29 10° SE
Cosmos 2341 Rocket 4.0 03:08:45 10° S 03:14:59 82° E 03:21:19 10° N
Cosmos 2366 rocket 3.9 03:15:26 10° S 03:21:35 87° E 03:27:44 10° N
Cosmos 1733 Rocket 3.0 03:18:57 10° S 03:23:14 61° E 03:27:34 10° NNE
Resurs 01 Rocket 3.2 03:20:38 10° SSW 03:24:37 35° W 03:28:39 10° NNW
Molniya-1 2.9 03:22:51 10° S 03:25:11 36° ESE 03:27:53 10° NE
Cosmos 2242 Rocket 4.1 03:22:16 10° N 03:26:23 37° E 03:29:13 18° SE
CZ-4B R/B 4.3 03:25:11 17° ESE 03:28:15 27° ENE 03:32:53 10° NNE
Cosmos 1048 Rocket 3.9 03:26:00 10° NNW 03:31:11 85° ENE 03:36:21 10° SSE
CZ-4 R/B 1.7 03:29:16 21° SE 03:31:21 40° ENE 03:34:50 10° N
Cosmos 2278 Rocket 2.2 03:27:11 10° NNW 03:32:52 90° ENE 03:38:19 11° SSE
USA 32 3.9 03:33:58 10° S 03:39:10 80° E 03:44:25 10° N
ATLAS 2A CENTAUR R/B 3.0 03:40:24 10° SW 03:41:38 14° SSW 03:41:38 14° SSW
OAO 3 Rocket 3.1 03:38:20 10° W 03:42:59 81° N 03:45:36 26° E
CZ-4B R/B 3.5 03:40:58 22° SSE 03:43:15 74° ENE 03:47:04 10° N
CSL-04 Debris 4.1 03:41:01 12° SSE 03:45:55 80° ENE 03:51:19 10° N
Aureole 3 4.3 03:41:33 10° N 03:47:00 63° E 03:51:59 16° SSE
SL-08 R/B 3.6 03:45:57 10° NNE 03:50:39 45° E 03:53:21 23° SSE
Cosmos 614 Rocket 3.9 03:48:59 10° NNW 03:54:06 69° ENE 03:56:37 30° SSE
SL-16 R/B 2.1 03:50:57 10° SSW 03:56:34 74° ESE 04:02:13 10° NNE
Cosmos 2239 Rocket 4.4 03:50:32 10° S 03:56:36 64° E 04:02:44 10° NNE
BREEZE-M DEB (TANK) 2.8 03:53:38 10° SW 03:56:48 80° SE 04:05:35 10° NE
Cosmos 1821 Rocket 4.2 03:51:05 10° SSW 03:57:19 75° W 04:03:40 10° N
MetOp-B 4.4 03:55:18 31° SE 03:57:32 50° ENE 04:02:43 10° N
ERS-1 Rocket 3.0 03:55:23 31° SE 03:57:33 56° ENE 04:02:26 10° N
Meteor 2-8 Rocket 4.4 03:52:35 10° S 03:58:35 65° E 04:04:34 10° NNE
Cosmos 2292 Rocket 4.5 03:56:11 10° NNE 03:58:37 24° NE 03:58:37 24° NE
Milstar 3 4.1 03:52:57 10° SSW 03:59:36 31° SE 04:02:46 26° ESE
TIMED 4.5 03:55:39 10° N 03:59:50 58° ENE 04:00:45 46° ESE
Cosmos 2298 Rocket 4.0 03:55:11 10° S 04:00:20 56° ESE 04:05:32 10° NNE
OAO 3 Copernicus 4.2 03:58:06 10° W 04:03:07 88° N 04:04:54 41° E
OAO 2 Rocket 3.3 04:00:09 10° W 04:05:20 80° N 04:07:24 36° E
Helios 1A Rocket 4.0 04:04:05 10° N 04:07:00 33° WNW 04:09:53 10° SW
Cosmos 1400 Rocket 4.4 04:06:23 10° SW 04:09:35 31° WNW 04:12:50 10° NNW
YAOGAN 11 4.4 04:07:10 10° NNE 04:10:46 45° ENE 04:10:46 45° ENE
PAYLOAD B 4.1 04:09:43 31° SSE 04:12:29 86° ENE 04:18:00 10° NNW
Cosmos 1346 Rocket 3.3 04:09:42 10° N 04:12:21 40° NE 04:12:21 40° NE
USA 234 3.9 04:10:29 10° NE 04:16:51 56° NW 04:23:13 10° WSW
USA 59 Rocket 0.0 04:13:15 10° NNW 04:17:09 73° ENE 04:17:47 62° ESE
Meteor 1-31 Rocket 4.0 04:16:15 23° SW 04:17:45 34° W 04:20:59 10° NNW
SL-4 R/B 1.8 04:17:17 10° SW 04:20:47 74° W 04:20:47 74° W
Cosmos 1000 Rocket 4.4 04:15:51 10° N 04:21:58 68° E 04:23:47 45° SSE
Spot 2 Rocket 3.8 04:22:44 45° ENE 04:22:44 45° ENE 04:27:29 10° N
Cosmos 1656 Rocket 3.6 04:18:48 10° NNW 04:24:16 68° ENE 04:25:13 57° ESE
Geosat 4.0 04:19:45 10° NNE 04:24:45 79° WNW 04:29:44 10° SSW
Meteor 2-16 Rocket 4.3 04:19:17 10° N 04:25:26 78° E 04:27:27 45° SSE
Okean-O 3.3 04:31:17 40° NE 04:31:17 40° NE 04:34:34 10° N
Cosmos 2285 Rocket 4.1 04:26:51 10° SSW 04:33:13 75° WNW 04:39:34 10° NNE
Cosmos 1674 Rocket 3.7 04:30:54 10° NNW 04:35:12 65° W 04:35:31 62° WSW
Cosmos 1908 Rocket 3.7 04:36:25 63° WSW 04:36:47 66° W 04:41:05 10° N
Okean O Rocket 2.2 04:40:45 47° NNE 04:40:45 47° NNE 04:44:00 10° N
Terra 2.5 04:44:39 44° SW 04:45:27 49° W 04:49:59 10° NNW
Gbstr 26 Del rocket 3.6 04:40:07 10° SW 04:45:38 65° NW 04:47:03 43° NNE
SL-08 R/B 4.3 04:47:31 10° N 04:53:46 86° E 04:54:21 75° SSE
Cosmos 2297 4.3 04:48:41 10° N 04:53:29 45° NE 04:53:29 45° NE
NOSS 2-1 (D) 4.4 04:51:55 10° NW 04:55:05 47° W 04:55:05 47° W
Cosmos 2369 Rocket 2.5 04:54:19 10° NNW 04:58:58 53° NNE 04:58:58 53° NNE
ADEOS 4.5 05:00:02 38° SW 05:00:58 41° W 05:05:52 10° NNW
SPOT 3 Rocket 4.5 05:03:20 38° NNE 05:03:20 38° NNE 05:06:49 10° N
BREEZE-M DEB (TANK) 4.4 05:00:39 10° NNW 05:04:21 36° NE 05:04:49 36° NE
ASTEX 1 4.1 05:06:06 51° W 05:06:06 51° W 05:10:36 10° NNW
Cosmos 1943 3.4 05:08:58 68° NNW 05:08:58 68° NNW 05:14:02 10° NNE
CZ-4B R/B 4.5 05:07:02 30° SW 05:08:34 35° W 05:13:41 10° NNW
NOSS 3-1 (C) 4.2 05:08:58 10° NNW 05:16:27 60° ENE 05:17:07 59° ENE
NOSS 3-1 (A) 4.5 06:08:07 10° NNW 06:14:24 58° NNE 06:14:24 58° NNE
COSMOS 2455 4.4 06:10:09 10° NNW 06:13:12 30° N 06:13:12 30° N
ATLAS 2AS CENTAUR R/B 4.3 07:19:13 28° NNE 07:19:13 28° NNE 07:22:12 10° NNE
ACS3 Solar Sail 3.9 08:10:53 10° NNE 08:12:45 19° NE 08:12:45 19° NE
ATLAS 3B R/B 4.0 08:33:40 10° NNW 08:38:09 37° NNW 08:38:09 37° NNW
Cosmos 2082 Rocket 4.3 09:28:26 19° NNW 09:28:26 19° NNW 09:30:29 10° N
Cosmos 2333 Rocket 3.9 09:22:23 10° N 09:26:41 29° NE 09:26:41 29° NE
CZ-3 Stage 3 3.8 09:33:58 40° ESE 09:33:58 40° ESE 09:43:41 10° E
ADEOS Rocket 3.8 09:29:17 10° NNE 09:36:33 63° E 09:36:33 63° E
Resurs 1-4 Rocket 4.1 09:34:21 10° NE 09:37:29 23° ENE 09:37:29 23° ENE
Cosmos 2322 Rocket 4.2 09:35:53 10° N 09:40:22 24° ENE 09:42:59 18° E
USA 281 3.6 09:45:37 60° NNE 09:45:37 60° NNE 09:51:23 10° NNW
H-2A R/B 4.1 09:46:43 10° NE 09:50:28 21° E 09:50:28 21° E
SL-16 R/B 3.4 09:50:18 10° NNW 09:53:41 36° N 09:53:41 36° N
ACS3 Solar Sail 3.4 09:53:31 10° NNW 09:56:18 23° NW 09:56:18 23° NW
Iridium 4 Rocket 4.5 10:20:38 38° NNE 10:20:38 38° NNE 10:23:44 10° N
Cosmos 2266 Rocket 4.1 10:16:35 10° N 10:21:43 65° NNW 10:21:43 65° NNW
Meteor 2-4 Rocket 4.4 10:22:34 43° ESE 10:22:57 43° E 10:27:59 10° NNE
IDEFIX/ARIANE 42P 4.4 10:18:43 10° NNW 10:20:49 21° NNW 10:20:49 21° NNW
Envisat 3.6 10:18:08 10° NNE 10:22:03 53° NNE 10:22:03 53° NNE
Meteor 2-20 Rocket 4.3 10:29:26 81° ESE 10:29:35 82° E 10:35:37 10° N
USA 267 3.6 10:23:46 10° NNE 10:30:03 50° NW 10:30:45 48° WNW
ALOS 3.1 10:26:18 10° NNE 10:29:40 47° NE 10:29:40 47° NE
Cosmos 990 Rocket 4.2 10:29:45 10° N 10:34:51 63° ENE 10:35:00 63° E
Meteor 1-27 Rocket 3.7 10:35:32 84° SE 10:35:40 86° E 10:41:37 10° N
Cosmos 841 Rocket 4.1 10:38:30 45° ESE 10:39:00 46° ESE 10:43:56 10° NNE
Cosmos 1655 Rocket 4.3 10:33:35 10° N 10:39:44 62° E 10:42:55 29° SSE
ADEOS II 2.3 10:34:58 10° NNE 10:40:09 63° ESE 10:40:32 61° SE
CZ-2D R/B 2.0 10:45:39 10° N 10:50:50 72° WNW 10:50:50 72° WNW
H-2A R/B 4.2 10:48:26 10° NE 10:51:20 19° E 10:53:11 14° SE
SL-4 R/B 3.8 10:52:59 14° NNW 10:55:34 27° NE 10:58:49 10° E
DELTA 2 R/B (1) 3.4 10:56:33 69° S 10:56:53 72° SSE 11:02:24 10° ENE
Cosmos 1354 Rocket 3.8 10:53:55 10° NNW 10:59:09 74° WSW 10:59:09 74° WSW
SL-16 R/B 4.3 10:56:48 10° SE 11:02:13 32° ENE 11:07:40 10° N
CZ-3 R/B 3.7 10:22:18 10° WSW 11:02:40 71° S 11:12:26 10° E
Cosmos 1766 Rocket 3.4 11:01:47 10° N 11:06:07 84° E 11:06:22 78° SE
Cosmos 2360 Rocket 2.1 11:03:24 10° NNW 11:09:00 63° WSW 11:10:31 46° SSW
BREEZE-M DEB (TANK) 3.7 11:07:14 35° W 11:09:46 49° NW 11:13:31 10° NE
Meteor 1-18 Rocket 4.5 11:07:01 27° S 11:10:06 65° E 11:15:35 10° NNE
Cosmos 2333 Rocket 3.7 11:06:32 10° NW 11:08:36 20° WNW 11:08:36 20° WNW
Meteor 2-10 Rocket 4.5 11:08:14 10° N 11:13:15 48° E 11:18:25 10° SSE
ISS -1.9 11:14:01 23° NNW 11:14:01 23° NNW 11:16:12 10° NNE
CRYOSAT 2 4.3 11:13:55 34° S 11:16:04 89° ENE 11:20:57 10° N
CZ-2C R/B 4.4 11:13:07 10° NE 11:16:56 24° E 11:20:38 10° SSE
Resurs 1-4 Rocket 2.8 11:13:37 10° N 11:18:21 34° WNW 11:18:32 34° WNW
Cosmos 2322 Rocket 2.5 11:19:14 10° NW 11:24:29 40° WSW 11:24:37 40° WSW
JB-3 3.9 11:24:54 75° W 11:24:54 75° W 11:28:28 10° NNW
Cosmos 1461 4.0 11:25:40 25° NW 11:25:40 25° NW 11:28:21 10° N
Cosmos 1553 Rocket 3.9 11:22:45 27° SSW 11:26:20 78° W 11:32:37 10° N
H-2A R/B 2.6 11:25:05 10° N 11:29:53 40° WNW 11:30:57 36° W
H-2A R/B 4.3 11:36:07 14° NW 11:36:07 14° NW 11:36:52 10° NW
Cosmos 2219 Rocket 2.2 11:32:28 10° NNW 11:38:00 59° WSW 11:43:32 10° S
DNEPR-1 R/B 4.5 11:34:09 10° NNW 11:40:02 86° WSW 11:47:13 10° SSE
Cosmos 2084 Rocket 3.4 11:39:13 10° NW 11:43:21 56° WSW 11:47:31 10° SSE
ARGOS 3.1 11:40:29 10° N 11:45:49 68° WNW 11:49:44 18° SSW
Cosmos 2227 Rocket 4.4 11:42:05 10° SSE 11:46:28 24° E 11:50:53 10° NE
Cosmos 1151 Rocket 2.9 11:44:23 15° S 11:47:49 85° E 11:52:03 10° N
USA 307 3.6 11:51:41 16° SSE 11:52:36 20° ESE 11:54:52 10° ENE
Cosmos 372 Rocket 4.0 11:47:53 10° NNW 11:52:53 53° WSW 11:57:48 10° S
Gbstr 26 Del rocket 2.8 11:51:49 10° NW 11:55:31 75° NE 11:59:27 10° SE
